Location: Calberlah
(52.4230°N, 10.6240°E)
Time: 23:35:38
(UTC+00:00)

Meteor 2-10 - Pass Details

Date: 19 May 2025
Orbit: 736 x 866 km, 81.2° (Epoch: 22 June)

Event Time Altitude Azimuth Distance (km) Brightness Sun altitude
Rises 21:01:10 0° 345° (NNW) 3,460 9.0 -12.1°
Reaches altitude 10° 21:03:38 10° 344° (NNW) 2,512 8.0 -12.3°
Maximum altitude 21:09:21 76° 261° (W) 879 4.3 -12.7°
Enters shadow 21:14:00 15° 177° (S) 2,102 5.7 -13.0°
